Terminal Aerodrome Forecast
Issued by NWS

Home | Current Version | Previous Version | Text Only | Print | Product List | Glossary On
Versions: 1 2 3 4 5 6 7 8 9 10 11 12 13 14 15 16 17 18 19 20 21 22
737
FTUS41 KPBZ 220301 AAB
TAFDUJ
TAF AMD
KDUJ 220301Z 2203/2224 21004KT 3SM BR BKN200
     FM221400 22008KT P6SM BKN120
     FM221900 23012G20KT P6SM -SHRA VCTS BKN050CB
     FM222100 24011G19KT 5SM -SHRA VCTS OVC040CB=

USA.gov is the U.S. government's official web portal to all federal, state and local government web resources and services.